When you browse on this site, cookies collect data to enhance your experience and personalize the content and advertising you see.
Visit our Privacy Policy to learn more. By continuing to use the site, you agree to this use of cookies and data.
  • In Czech Republic
  • List of Countries
  • For 7 days
  • Water Temperature
  • Satellite Maps
  • Weather Map
  • Weather Widgets
  • user-avatar
    Login

    Hourly Weather Red Deer

    Today, 16 June, Sunday

    Time Temperature Precipitation Wind Pressure Humidity
    00:00 +10°C° 0 mm 2 mps 684 mmHg 86%
    01:00 +9°C° 0 mm 2 mps 684 mmHg 87%
    02:00 +10°C° 0 mm 1 mps 684 mmHg 87%
    03:00 +10°C° 0 mm 1 mps 684 mmHg 87%
    04:00 +10°C° 0 mm 1 mps 683 mmHg 86%
    05:00 +12°C° 0 mm 1 mps 684 mmHg 82%
    06:00 +13°C° 0 mm 0 mps 684 mmHg 77%
    07:00 +15°C° 0 mm 0 mps 685 mmHg 72%
    08:00 +18°C° 0 mm 1 mps 685 mmHg 68%
    09:00 +19°C° 0 mm 1 mps 685 mmHg 63%
    10:00 +20°C° 0 mm 1 mps 685 mmHg 59%
    11:00 +21°C° 0 mm 1 mps 685 mmHg 56%
    12:00 +22°C° 0 mm 1 mps 685 mmHg 53%
    13:00 +22°C° 0 mm 1 mps 685 mmHg 50%
    14:00 +21°C° 0 mm 2 mps 685 mmHg 52%
    15:00 +21°C° 0 mm 2 mps 684 mmHg 54%
    16:00 +21°C° 0 mm 3 mps 684 mmHg 56%
    17:00 +20°C° 0 mm 3 mps 684 mmHg 63%
    18:00 +18°C° 0 mm 3 mps 684 mmHg 71%
    19:00 +17°C° 0 mm 3 mps 684 mmHg 79%
    20:00 +14°C° 0 mm 3 mps 684 mmHg 80%
    21:00 +13°C° 0 mm 3 mps 684 mmHg 82%
    22:00 +12°C° 0 mm 3 mps 683 mmHg 83%
    23:00 +11°C° 0 mm 3 mps 683 mmHg 86%

    Tomorrow, 17 June, Monday

    Time Temperature Precipitation Wind Pressure Humidity
    00:00 +11°C° 0 mm 3 mps 683 mmHg 89%
    01:00 +10°C° 0 mm 3 mps 683 mmHg 92%
    02:00 +10°C° 0 mm 3 mps 683 mmHg 93%
    03:00 +10°C° 0 mm 3 mps 683 mmHg 93%
    04:00 +10°C° 0 mm 3 mps 683 mmHg 93%
    05:00 +11°C° 0 mm 4 mps 683 mmHg 88%
    06:00 +13°C° 0 mm 5 mps 684 mmHg 83%
    07:00 +15°C° 0 mm 5 mps 684 mmHg 78%
    08:00 +16°C° 0 mm 5 mps 684 mmHg 74%
    09:00 +17°C° 0 mm 6 mps 684 mmHg 70%
    10:00 +20°C° 0 mm 6 mps 684 mmHg 66%
    11:00 +20°C° 0 mm 6 mps 684 mmHg 65%
    12:00 +21°C° 0 mm 6 mps 684 mmHg 63%
    13:00 +22°C° 0 mm 6 mps 683 mmHg 62%
    14:00 +22°C° 0 mm 6 mps 683 mmHg 63%
    15:00 +22°C° 0 mm 6 mps 683 mmHg 63%
    16:00 +22°C° 0 mm 6 mps 683 mmHg 64%
    17:00 +21°C° 0 mm 6 mps 682 mmHg 68%
    18:00 +19°C° 0 mm 5 mps 682 mmHg 72%
    19:00 +18°C° 0 mm 4 mps 681 mmHg 75%
    20:00 +16°C° 0 mm 5 mps 681 mmHg 72%
    21:00 +16°C° 0 mm 5 mps 681 mmHg 68%
    22:00 +15°C° 0 mm 6 mps 680 mmHg 64%
    23:00 +14°C° 0.2 mm 5 mps 680 mmHg 69%

    Day after tomorrow, 18 June, Tuesday

    Time Temperature Precipitation Wind Pressure Humidity
    00:00 +13°C° 0.2 mm 5 mps 679 mmHg 73%
    01:00 +13°C° 0.2 mm 5 mps 679 mmHg 77%
    02:00 +12°C° 0.8 mm 4 mps 679 mmHg 82%
    03:00 +12°C° 0.8 mm 3 mps 679 mmHg 87%
    04:00 +13°C° 0.8 mm 2 mps 679 mmHg 92%
    05:00 +12°C° 1 mm 3 mps 679 mmHg 93%
    06:00 +13°C° 1 mm 4 mps 680 mmHg 94%
    07:00 +13°C° 1 mm 6 mps 680 mmHg 94%
    08:00 +14°C° 0.5 mm 5 mps 681 mmHg 92%
    09:00 +14°C° 0.5 mm 5 mps 681 mmHg 90%
    10:00 +14°C° 0.5 mm 5 mps 681 mmHg 88%
    11:00 +15°C° 0.1 mm 5 mps 681 mmHg 84%
    12:00 +17°C° 0.1 mm 4 mps 682 mmHg 80%
    13:00 +18°C° 0.1 mm 3 mps 682 mmHg 76%
    14:00 +18°C° 0 mm 3 mps 682 mmHg 74%
    15:00 +18°C° 0 mm 2 mps 682 mmHg 71%
    16:00 +19°C° 0 mm 2 mps 682 mmHg 69%
    17:00 +18°C° 0 mm 2 mps 682 mmHg 73%
    18:00 +18°C° 0 mm 1 mps 681 mmHg 77%
    19:00 +16°C° 0 mm 1 mps 681 mmHg 82%
    20:00 +15°C° 0 mm 1 mps 681 mmHg 85%
    21:00 +14°C° 0 mm 1 mps 680 mmHg 89%
    22:00 +12°C° 0 mm 2 mps 680 mmHg 92%
    23:00 +12°C° 0 mm 2 mps 679 mmHg 92%

    19 June, Wednesday

    Time Temperature Precipitation Wind Pressure Humidity
    00:00 +12°C° 0 mm 2 mps 678 mmHg 91%
    01:00 +11°C° 0 mm 3 mps 677 mmHg 91%
    02:00 +12°C° 0.1 mm 2 mps 677 mmHg 92%
    03:00 +12°C° 0.1 mm 2 mps 677 mmHg 93%
    04:00 +10°C° 0.1 mm 2 mps 676 mmHg 94%
    05:00 +10°C° 1.3 mm 4 mps 676 mmHg 93%
    06:00 +9°C° 1.3 mm 6 mps 676 mmHg 93%
    07:00 +7°C° 1.3 mm 8 mps 676 mmHg 93%
    08:00 +7°C° 2.5 mm 8 mps 676 mmHg 91%
    09:00 +6°C° 2.5 mm 9 mps 676 mmHg 90%
    10:00 +5°C° 2.5 mm 9 mps 676 mmHg 89%
    11:00 +6°C° 0.3 mm 9 mps 676 mmHg 85%
    12:00 +7°C° 0.3 mm 10 mps 676 mmHg 82%
    13:00 +7°C° 0.3 mm 10 mps 676 mmHg 79%
    14:00 +8°C° 0 mm 10 mps 676 mmHg 76%
    15:00 +10°C° 0 mm 9 mps 676 mmHg 73%
    16:00 +10°C° 0 mm 9 mps 677 mmHg 71%
    17:00 +9°C° 0 mm 7 mps 676 mmHg 74%
    18:00 +9°C° 0 mm 6 mps 676 mmHg 77%
    19:00 +8°C° 0 mm 4 mps 676 mmHg 80%
    20:00 +7°C° 0 mm 4 mps 676 mmHg 82%
    21:00 +7°C° 0 mm 3 mps 676 mmHg 85%
    22:00 +6°C° 0 mm 2 mps 676 mmHg 87%
    23:00 +5°C° 0 mm 3 mps 676 mmHg 86%

    20 June, Thursday

    Time Temperature Precipitation Wind Pressure Humidity
    00:00 +5°C° 0 mm 3 mps 676 mmHg 85%
    01:00 +5°C° 0 mm 4 mps 676 mmHg 84%
    02:00 +5°C° 0 mm 3 mps 676 mmHg 83%
    03:00 +5°C° 0 mm 3 mps 675 mmHg 83%
    04:00 +5°C° 0 mm 3 mps 675 mmHg 82%
    05:00 +6°C° 0 mm 5 mps 675 mmHg 77%
    06:00 +6°C° 0 mm 7 mps 675 mmHg 72%
    07:00 +9°C° 0 mm 8 mps 675 mmHg 68%
    08:00 +9°C° 0 mm 8 mps 675 mmHg 70%
    09:00 +9°C° 0 mm 7 mps 675 mmHg 73%
    10:00 +8°C° 0 mm 7 mps 675 mmHg 76%
    11:00 +9°C° 0 mm 6 mps 676 mmHg 76%
    12:00 +9°C° 0 mm 6 mps 676 mmHg 76%
    13:00 +10°C° 0 mm 6 mps 676 mmHg 76%
    14:00 +10°C° 0 mm 5 mps 676 mmHg 75%
    15:00 +10°C° 0 mm 5 mps 677 mmHg 75%
    16:00 +12°C° 0 mm 5 mps 677 mmHg 75%
    17:00 +10°C° 0 mm 5 mps 677 mmHg 78%
    18:00 +9°C° 0 mm 5 mps 677 mmHg 81%
    19:00 +8°C° 0 mm 5 mps 677 mmHg 84%
    20:00 +8°C° 0.6 mm 5 mps 678 mmHg 88%
    21:00 +8°C° 0.6 mm 6 mps 678 mmHg 92%
    22:00 +8°C° 0.6 mm 6 mps 678 mmHg 96%
    23:00 +8°C° 0.1 mm 6 mps 678 mmHg 95%

    21 June, Friday

    Time Temperature Precipitation Wind Pressure Humidity
    00:00 +9°C° 0.1 mm 7 mps 678 mmHg 94%
    01:00 +9°C° 0.1 mm 7 mps 679 mmHg 93%
    02:00 +9°C° 0.1 mm 7 mps 679 mmHg 94%
    03:00 +9°C° 0.1 mm 7 mps 679 mmHg 94%
    04:00 +9°C° 0.1 mm 7 mps 679 mmHg 95%
    05:00 +9°C° 0 mm 7 mps 680 mmHg 94%
    06:00 +9°C° 0 mm 7 mps 680 mmHg 94%
    07:00 +9°C° 0 mm 7 mps 681 mmHg 94%
    08:00 +10°C° 0.1 mm 8 mps 681 mmHg 91%
    09:00 +11°C° 0.1 mm 8 mps 682 mmHg 89%
    10:00 +12°C° 0.1 mm 8 mps 682 mmHg 87%
    11:00 +12°C° 0.7 mm 8 mps 683 mmHg 85%
    12:00 +13°C° 0.7 mm 8 mps 683 mmHg 83%
    13:00 +13°C° 0.7 mm 9 mps 683 mmHg 81%
    14:00 +13°C° 0.6 mm 8 mps 683 mmHg 83%
    15:00 +12°C° 0.6 mm 8 mps 683 mmHg 86%
    16:00 +12°C° 0.6 mm 8 mps 684 mmHg 88%
    17:00 +11°C° 0.5 mm 7 mps 684 mmHg 89%
    18:00 +11°C° 0.5 mm 6 mps 684 mmHg 89%
    19:00 +12°C° 0.5 mm 5 mps 684 mmHg 90%
    20:00 +10°C° 0.2 mm 5 mps 684 mmHg 91%
    21:00 +10°C° 0.2 mm 5 mps 684 mmHg 93%
    22:00 +10°C° 0.2 mm 4 mps 684 mmHg 94%
    23:00 +9°C° 0.1 mm 5 mps 684 mmHg 93%
    Show more